COSMOS 2251 DEB, 34303

Orbit data source: Space-Track

COSMOS 2251 DEB, 34303 is space debris in LEO originally from a launch on Wed, 16 Jun 1993 UTC launched from the Plesetsk Missile And Space Complex (PKMTR). The debris from Iridium 33, an American commercial communications satellite, has been tracked extensively since its accidental collision with the defunct Russian satellite Cosmos 2251 in 2009. This event, occurring at high speed in low Earth orbit (LEO), generated thousands of pieces of space debris, significantly increasing the risk of further collisions. The Iridium 33 debris cloud has impacted space traffic management and orbital debris mitigation strategies, making it a subject of ongoing study in space situational awareness.

Loading next visibility...
Identifier
34303, 1993-036MZ
Orbit
LEO
Country
Flag of CISCIS
Related business
Manufacturer
Unknown
Mission
Spacecraft
Bus & Motor
Unknown
Mass
Unknown
Launch date (UTC)
1993-06-16 (33 years ago)
Launch vehicle
Unknown
Launch site
Plesetsk Missile And Space Complex (PKMTR)
Object type
Payload
Rocket body
Debris
Shape & HBR
Unknown shape, 0.1 m
Radar Cross Section
Medium (>0.1 m² and <1 m²)

Expand to show TLE details & history
Last TLE update: 14 hours ago

TLE from 14 hours ago
0 COSMOS 2251 DEB
1 34303U 93036MZ  26175.07472480  .00002485  00000-0  49900-3 0  9991
2 34303  74.0042 280.8422 0134849  12.3679 165.0286 14.56587788907750
Epoch: 2026-06-24T01:47Z
TLE epoch observation values (Epoch: 2026-06-24T01:47:36.222Z)
Latitude
2.02625°
Longitude
161.12609°
Altitude
798.971 km
Speed
7.406 km/s
True Right ascension
06h 41m 03s
True Declination
2° 00' 51"
Sunlit
Object was in daylight at epoch
Visualization orbit readout
Latitude
Unknown
Longitude
Unknown
Altitude
Unknown
Speed
Unknown
Apparent Right ascension
Unknown
Apparent Declination
Unknown
Sunlit
N/A
Visualization observer readout
Local Sidereal Time
03:14:53
Azimuth
Unknown
Elevation
Unknown
Doppler factor
Unknown
Orbital elements
Apogee altitude
797.289 km
Perigee altitude
606.344 km
Semi-major axis
7,079.954 km
Eccentricity
0.01348
Inclination
74.0042°
RAAN
280.8422°
Arg. of periapsis
12.3679°
True anomaly
165.42139°
Mean anomaly
165.0286°
Eccentric anomaly
165.22563°
Mean motion
3.64332 °/min
Orbital period
98.81 mins
BSTAR
0.000499
Loading maneuver chart data...
Computing Atmospheric mass density...

Documentation

Showing up to 5 results
|